User: anonymous   Login
Location: Sungai Igah
(2.7333°N, 114.2500°E)
Time: 09:27:51
(UTC+00:00)
Language:

Cosmos 2298 Rocket - Orbit

View from above orbital plane
View from above orbital plane
View from above satellite
View from above satellite

Ground track
Ground track

The orbit data is extracted from the following two-line orbital elements,

1 23432U 94083B   21263.92798359  .00000025  00000-0  18598-4 0  9996
2 23432  74.0336 331.0307 0005030 175.2561 358.7636 14.33566412399140
Epoch (UTC): 20 September 2021 22:16:17
Eccentricity: 0.0005030
inclination: 74.0336°
perigee height: 776 km
apogee height: 783 km
right ascension of ascending node: 331.0307°
argument of perigee: 175.2561°
revolutions per day: 14.33566412
mean anomaly at epoch: 358.7636°
orbit number at epoch: 39914

The dashed part of the orbit path shows where the satellite is in the earth's shadow,  

DLR